Location: Hartford
(41.7640°N, 72.6860°W)
Time: 14:05:22
(UTC-05:00)

Amateur Radio Satellites - All Passes

Search period start: 26 February 2017 13:35
Search period end: 27 February 2017 13:35
Location: Hartford, 41.7640°N, 72.6860°W

Satellite Date Start Highest point End Downlink Frequencies (MHz)
Time Altitude Azimuth
AO-7 26 Feb 13:44:32 13:52:33 53° 64° (ENE) 14:00:33 .
ITUPSAT 1 26 Feb 13:49:00 13:52:35 21° 93° (E) 13:56:08 437.325
Gurwin Techsat 1B 26 Feb 13:49:33 13:54:14 31° 264° (W) 13:58:56 435.225
BEESAT 26 Feb 13:54:34 13:58:26 24° 95° (E) 14:02:16 436.000
Tancredo 1 26 Feb 13:57:43 14:00:51 52° 220° (SW) 14:03:59 437.200
BEESAT 3 26 Feb 13:59:55 14:03:46 42° 52° (NE) 14:07:35 437.485
MOZHAYETS 4 26 Feb 14:07:00 14:08:15 11° 89° (E) 14:09:30
BEESAT 2 26 Feb 14:40:47 14:44:44 47° 53° (NE) 14:48:38 435.950
ITAMSAT 1 26 Feb 15:10:58 15:15:25 29° 264° (W) 15:19:55 435.822/435.867
ISS 26 Feb 15:13:16 15:14:04 11° 231° (SW) 15:14:53 437.550
RS-15 26 Feb 15:18:05 15:27:12 27° 100° (E) 15:36:31 29.354- 29.394
PCSat 26 Feb 15:25:21 15:30:38 57° 115° (ESE) 15:35:58 145.827
ITUPSAT 1 26 Feb 15:26:03 15:30:35 43° 290° (WNW) 15:35:05 437.325
BEESAT 26 Feb 15:31:54 15:36:17 37° 291° (WNW) 15:40:38 436.000
AO-7 26 Feb 15:37:59 15:45:30 36° 262° (W) 15:53:03 .
BEESAT 3 26 Feb 15:38:21 15:41:04 18° 249° (WSW) 15:43:45 437.485
MOZHAYETS 4 26 Feb 15:41:18 15:45:55 73° 285° (WNW) 15:50:28
KKS-1 26 Feb 16:02:57 16:07:17 47° 99° (E) 16:11:36 437.445
KAITUO 1B 26 Feb 16:15:31 16:17:35 14° 65° (ENE) 16:19:39 145.475/437.950
DOVE 4 26 Feb 16:17:23 16:20:33 22° 67° (ENE) 16:23:46 437.250
BEESAT 2 26 Feb 16:19:37 16:22:07 16° 250° (WSW) 16:24:37 435.950
XW-2F 26 Feb 16:21:37 16:24:26 20° 68° (ENE) 16:27:15 145.980 - 146.000
NO-84 26 Feb 16:24:36 16:27:46 81° 137° (SE) 16:31:16 435.350 FM
XW-2D 26 Feb 16:26:45 16:29:51 24° 69° (ENE) 16:32:58 145.860 - 145.880
CUTE-I 26 Feb 16:27:51 16:32:29 31° 66° (ENE) 16:37:09 437.470
XW-2B 26 Feb 16:31:41 16:34:54 26° 70° (ENE) 16:38:09 145.730 - 145.750
STARS 26 Feb 16:33:23 16:37:39 44° 99° (E) 16:41:53 437.465
M-CUBED/EXP-1 PRIME 26 Feb 16:35:11 16:37:55 18° 100° (E) 16:40:46 437.505
XW-2C 26 Feb 16:40:06 16:43:33 33° 71° (ENE) 16:47:03 145.795 - 145.815
CUBESAT XI-V 26 Feb 16:44:04 16:48:41 82° 104° (ESE) 16:53:16 437.345
NUDT-PHONESAT 26 Feb 16:47:18 16:50:41 32° 71° (ENE) 16:54:05 437.300
HO-68 26 Feb 16:53:07 16:57:53 20° 55° (NE) 17:02:40 435.675
LilacSat-2 26 Feb 16:57:59 17:01:47 57° 75° (ENE) 17:05:38 437.200
PCSat 26 Feb 17:10:03 17:14:24 24° 314° (NW) 17:18:47 145.827
RS-15 26 Feb 17:26:08 17:38:08 86° 302° (WNW) 17:50:36 29.354- 29.394
XW-2A 26 Feb 17:39:24 17:42:08 23° 70° (ENE) 17:44:55 145.665 - 145.685
KKS-1 26 Feb 17:40:29 17:43:29 18° 296° (WNW) 17:46:28 437.445
KAITUO 1B 26 Feb 17:47:37 17:51:14 42° 261° (W) 17:54:54 145.475/437.950
CUTE 1.7 + AOD 2 26 Feb 17:53:56 17:57:34 28° 69° (ENE) 18:01:12 437.475
DOVE 4 26 Feb 17:54:28 17:58:06 30° 264° (W) 18:01:49 437.250
XW-2F 26 Feb 17:55:00 17:58:23 29° 263° (W) 18:01:49 145.980 - 146.000
XW-2D 26 Feb 18:00:47 18:03:57 24° 265° (W) 18:07:09 145.860 - 145.880
NO-84 26 Feb 18:03:25 18:05:53 18° 338° (NNW) 18:08:31 435.350 FM
XW-2B 26 Feb 18:06:02 18:09:04 22° 266° (W) 18:12:07 145.730 - 145.750
CUTE-I 26 Feb 18:07:36 18:12:26 35° 263° (W) 18:17:19 437.470
M-CUBED/EXP-1 PRIME 26 Feb 18:08:54 18:12:25 36° 293° (WNW) 18:16:10 437.505
STARS 26 Feb 18:10:36 18:13:39 18° 296° (WNW) 18:16:41 437.465
XW-2C 26 Feb 18:15:14 18:17:51 17° 267° (W) 18:20:29 145.795 - 145.815
NUDT-PHONESAT 26 Feb 18:22:10 18:24:41 17° 267° (W) 18:27:14 437.300
CUBESAT XI-V 26 Feb 18:24:03 18:25:22 11° 300° (WNW) 18:26:41 437.345
CUBEBUG 2 26 Feb 18:26:24 18:30:15 29° 68° (ENE) 18:34:14 437.445
AO-73 26 Feb 18:32:29 18:34:20 12° 61° (ENE) 18:36:12 145.935
AAUSAT CUBESAT 2 26 Feb 18:33:53 18:37:16 24° 68° (ENE) 18:40:38 437.432
LilacSat-2 26 Feb 18:35:54 18:36:26 10° 270° (W) 18:36:58 437.200
HO-68 26 Feb 18:37:30 18:44:42 88° 253° (WSW) 18:51:55 435.675
Oscar 11 26 Feb 18:37:48 18:39:18 12° 62° (ENE) 18:40:50 .
SEEDS 26 Feb 18:47:52 18:52:05 73° 75° (ENE) 18:56:18 437.485
UWE-3 26 Feb 19:00:23 19:04:35 42° 71° (ENE) 19:08:55 435.000/436.395/437.385
XW-2A 26 Feb 19:12:24 19:14:53 19° 266° (W) 19:17:23 145.665 - 145.685
ZACube-1 26 Feb 19:18:14 19:22:22 38° 71° (ENE) 19:26:37 437.345
STRAND 1 26 Feb 19:19:57 19:25:09 80° 103° (ESE) 19:30:17 437.568
CUTE 1.7 + AOD 2 26 Feb 19:29:46 19:33:21 26° 265° (W) 19:36:56 437.475
RS-15 26 Feb 19:41:55 19:52:39 34° 330° (NNW) 20:03:36 29.354- 29.394
NO-84 26 Feb 19:43:42 19:44:51 11° 0° (N) 19:46:00 435.350 FM
DELFI C3 26 Feb 19:53:55 19:57:00 22° 68° (ENE) 20:00:04 145.870
YUBILEINY 26 Feb 20:03:01 20:10:45 34° 70° (ENE) 20:18:24 435.215
CUBEBUG 2 26 Feb 20:03:02 20:06:49 27° 266° (W) 20:10:44 437.445
AO-73 26 Feb 20:05:28 20:09:55 73° 258° (WSW) 20:14:29 145.935
AAUSAT CUBESAT 2 26 Feb 20:09:03 20:12:37 27° 264° (W) 20:16:12 437.432
Oscar 11 26 Feb 20:10:30 20:14:50 72° 257° (WSW) 20:19:13 .
SO-50 26 Feb 20:26:31 20:29:21 16° 110° (ESE) 20:32:11 436.795
HO-68 26 Feb 20:29:24 20:33:20 15° 271° (W) 20:37:16 435.675
PRISM 26 Feb 20:29:55 20:32:42 18° 94° (E) 20:35:29 437.425
UWE-3 26 Feb 20:38:02 20:41:13 19° 268° (W) 20:44:29 435.000/436.395/437.385
ZACube-1 26 Feb 20:55:26 20:58:47 20° 268° (W) 21:02:11 437.345
STRAND 1 26 Feb 21:01:02 21:03:37 14° 301° (WNW) 21:06:12 437.568
FO-29 26 Feb 21:04:09 21:08:24 16° 84° (E) 21:12:26 435.910
TIGRISAT 26 Feb 21:07:11 21:10:41 20° 93° (E) 21:14:08 435.000
UNISAT 6 26 Feb 21:07:14 21:10:54 22° 93° (E) 21:14:29 437.425
O/OREOS (USA 219) 26 Feb 21:07:33 21:10:28 17° 100° (E) 21:13:24 437.305
NO-84 26 Feb 21:21:04 21:23:50 18° 21° (NNE) 21:26:43 435.350 FM
DELFI C3 26 Feb 21:28:14 21:31:39 28° 264° (W) 21:35:04 145.870
LO-87 26 Feb 21:42:44 21:46:09 47° 74° (ENE) 21:49:34 145.935 - 145.965
YUBILEINY 26 Feb 21:59:29 22:07:53 54° 270° (W) 22:16:14 435.215
RS-15 26 Feb 22:00:59 22:10:27 24° 5° (N) 22:19:50 29.354- 29.394
PRISM 26 Feb 22:04:21 22:08:06 36° 289° (WNW) 22:11:52 437.425
SO-50 26 Feb 22:04:44 22:09:21 61° 305° (NW) 22:13:57 436.795
ESTCUBE 1 26 Feb 22:23:16 22:27:46 75° 76° (ENE) 22:32:17 437.505/2401.250
DX 1 26 Feb 22:30:30 22:32:42 14° 62° (ENE) 22:34:53 434.975-435.025
PCSat 26 Feb 22:32:21 22:33:25 11° 33° (NNE) 22:34:30 145.827
AIST 2D 26 Feb 22:38:08 22:41:08 25° 95° (E) 22:44:06 435.315
SPROUT 26 Feb 22:38:29 22:42:07 28° 69° (ENE) 22:45:46 437.525
UKube-1 26 Feb 22:39:49 22:41:35 12° 61° (ENE) 22:43:22 .
VELOX 1 26 Feb 22:42:05 22:46:08 39° 71° (ENE) 22:50:14 145.980
TIGRISAT 26 Feb 22:43:05 22:47:31 41° 289° (WNW) 22:51:52 435.000
UNISAT 6 26 Feb 22:43:20 22:47:42 38° 290° (WNW) 22:52:00 437.425
O/OREOS (USA 219) 26 Feb 22:45:11 22:49:29 45° 297° (WNW) 22:53:49 437.305
FO-29 26 Feb 22:46:52 22:54:34 88° 103° (ESE) 23:01:26 435.910
NO-84 26 Feb 22:58:03 23:02:07 67° 40° (NE) 23:06:25 435.350 FM
DUCHIFAT 1 26 Feb 23:10:01 23:13:50 31° 97° (E) 23:17:36 145.980
EO-79 26 Feb 23:22:28 23:26:41 51° 100° (E) 23:30:51 145.935-145.965
50 SAT 26 Feb 23:37:31 23:40:58 66° 258° (WSW) 23:44:27 437.505
NANOSAT C BR1 26 Feb 23:38:22 23:42:39 73° 102° (ESE) 23:46:54 145.865
POLYITAN 1 26 Feb 23:40:28 23:44:47 84° 102° (ESE) 23:49:05 437.675
QB50P2 26 Feb 23:43:31 23:47:50 84° 282° (WNW) 23:52:07 145.880/145.840
SO-50 26 Feb 23:49:13 23:50:46 11° 326° (NW) 23:52:18 436.795
BUGSAT 1 27 Feb 00:00:12 00:04:12 38° 98° (E) 00:08:11 437.445
DX 1 27 Feb 00:04:07 00:08:23 59° 259° (WSW) 00:12:40 434.975-435.025
ESTCUBE 1 27 Feb 00:04:24 00:05:05 10° 271° (W) 00:05:45 437.505/2401.250
AIST 2D 27 Feb 00:11:36 00:14:12 19° 292° (WNW) 00:16:47 435.315
UKube-1 27 Feb 00:12:47 00:17:04 66° 259° (WSW) 00:21:21 .
PCSat 27 Feb 00:12:54 00:18:12 49° 55° (NE) 00:23:26 145.827
SPROUT 27 Feb 00:14:27 00:17:59 25° 265° (W) 00:21:33 437.525
RS-15 27 Feb 00:15:56 00:27:33 43° 38° (NE) 00:38:46 29.354- 29.394
VELOX 1 27 Feb 00:19:37 00:22:44 19° 267° (W) 00:25:53 145.980
Gurwin Techsat 1B 27 Feb 00:27:12 00:29:22 12° 89° (E) 00:31:33 435.225
FO-29 27 Feb 00:33:15 00:38:29 21° 305° (NW) 00:43:25 435.910
NO-84 27 Feb 00:36:34 00:39:30 18° 234° (SW) 00:42:33 435.350 FM
DUCHIFAT 1 27 Feb 00:45:57 00:49:20 23° 293° (WNW) 00:52:43 145.980
ITUPSAT 1 27 Feb 00:55:51 00:59:48 26° 66° (ENE) 01:03:44 437.325
EO-79 27 Feb 00:59:32 01:02:01 15° 296° (WNW) 01:04:28 145.935-145.965
BEESAT 27 Feb 01:01:04 01:05:10 29° 67° (ENE) 01:09:18 436.000
Oscar 19 27 Feb 01:05:48 01:10:49 52° 100° (E) 01:15:49 437.125/150
MOZHAYETS 4 27 Feb 01:09:07 01:11:03 12° 61° (ENE) 01:12:58
NANOSAT C BR1 27 Feb 01:16:27 01:17:45 11° 299° (WNW) 01:19:04 145.865
BUGSAT 1 27 Feb 01:36:15 01:39:16 19° 294° (WNW) 01:42:18 437.445
ITAMSAT 1 27 Feb 01:45:51 01:47:39 12° 89° (E) 01:49:27 435.822/435.867
AO-7 27 Feb 01:48:20 01:52:19 14° 88° (E) 01:56:17 .
PCSat 27 Feb 01:56:57 02:01:15 24° 253° (WSW) 02:05:31 145.827
Gurwin Techsat 1B 27 Feb 02:04:35 02:09:56 81° 286° (WNW) 02:15:15 435.225
AO-85 27 Feb 02:11:27 02:11:58 10° 109° (ESE) 02:12:29 145.980
RS-15 27 Feb 02:28:49 02:41:00 71° 244° (WSW) 02:52:38 29.354- 29.394
ITUPSAT 1 27 Feb 02:33:03 02:37:26 35° 262° (W) 02:41:52 437.325
BEESAT 27 Feb 02:38:39 02:42:52 31° 263° (W) 02:47:06 436.000
MOZHAYETS 4 27 Feb 02:42:55 02:47:34 76° 258° (WSW) 02:52:14
Oscar 19 27 Feb 02:46:04 02:49:44 20° 297° (WNW) 02:53:24 437.125/150
KKS-1 27 Feb 03:01:03 03:05:15 44° 71° (ENE) 03:09:28 437.445
M-CUBED/EXP-1 PRIME 27 Feb 03:22:16 03:24:40 19° 63° (ENE) 03:27:04 437.505
ITAMSAT 1 27 Feb 03:22:29 03:27:45 84° 286° (WNW) 03:32:59 435.822/435.867
STARS 27 Feb 03:30:03 03:34:08 40° 70° (ENE) 03:38:15 437.465
AO-7 27 Feb 03:38:01 03:46:22 76° 107° (ESE) 03:54:39 .
CUBESAT XI-V 27 Feb 03:47:10 03:51:50 82° 76° (ENE) 03:56:29 437.345
Gurwin Techsat 1B 27 Feb 03:47:16 03:49:00 12° 303° (WNW) 03:50:44 435.225
AO-85 27 Feb 03:47:17 03:51:50 83° 302° (WNW) 03:56:06 145.980
KKS-1 27 Feb 04:39:06 04:42:01 17° 267° (W) 04:44:57 437.445
RS-15 27 Feb 04:44:50 04:50:59 16° 265° (W) 04:57:03 29.354- 29.394
CUTE-I 27 Feb 04:46:43 04:48:18 11° 88° (E) 04:49:53 437.470
SO-50 27 Feb 04:56:14 04:59:26 19° 41° (NE) 05:02:37 436.795
M-CUBED/EXP-1 PRIME 27 Feb 04:56:31 04:59:04 21° 259° (WSW) 05:01:38 437.505
STRAND 1 27 Feb 04:59:35 05:02:34 16° 60° (ENE) 05:05:32 437.568
ITAMSAT 1 27 Feb 05:04:33 05:06:22 12° 303° (WNW) 05:08:11 435.822/435.867
STARS 27 Feb 05:07:36 05:10:38 18° 267° (W) 05:13:43 437.465
KAITUO 1B 27 Feb 05:19:25 05:21:59 17° 93° (E) 05:24:31 145.475/437.950
XW-2F 27 Feb 05:26:53 05:30:06 25° 95° (E) 05:33:16 145.980 - 146.000
BEESAT 3 27 Feb 05:26:59 05:30:51 69° 121° (ESE) 05:34:48 437.485
AO-85 27 Feb 05:30:58 05:32:50 12° 321° (NW) 05:34:39 145.980
AO-7 27 Feb 05:31:50 05:38:20 27° 306° (NW) 05:44:50 .
XW-2D 27 Feb 05:32:33 05:36:00 32° 97° (E) 05:39:25 145.860 - 145.880
XW-2B 27 Feb 05:37:35 05:41:07 35° 97° (E) 05:44:37 145.730 - 145.750
XW-2C 27 Feb 05:46:12 05:49:54 46° 99° (E) 05:53:33 145.795 - 145.815
NUDT-PHONESAT 27 Feb 05:51:09 05:54:45 42° 98° (E) 05:58:18 437.300
DOVE 4 27 Feb 05:51:10 05:55:55 63° 101° (E) 06:00:55 437.250
LilacSat-2 27 Feb 06:05:03 06:08:55 85° 107° (ESE) 06:12:43 437.200
HO-68 27 Feb 06:06:44 06:11:07 17° 90° (E) 06:15:29 435.675
BEESAT 2 27 Feb 06:09:30 06:13:26 81° 121° (ESE) 06:17:27 435.950
ISS 27 Feb 06:15:03 06:17:41 22° 134° (SE) 06:20:20 437.550
CUTE-I 27 Feb 06:23:36 06:29:02 89° 283° (WNW) 06:34:24 437.470
XW-2A 27 Feb 06:33:28 06:36:19 23° 96° (E) 06:39:08 145.665 - 145.685
SEEDS 27 Feb 06:33:35 06:34:59 11° 90° (E) 06:36:22 437.485
Tancredo 1 27 Feb 06:35:20 06:38:21 36° 138° (SE) 06:41:24 437.200
SO-50 27 Feb 06:35:51 06:40:18 63° 241° (WSW) 06:44:43 436.795
STRAND 1 27 Feb 06:36:00 06:41:07 71° 258° (WSW) 06:46:18 437.568
KAITUO 1B 27 Feb 06:52:43 06:56:04 31° 289° (WNW) 06:59:23 145.475/437.950
XW-2F 27 Feb 07:01:09 07:04:07 22° 292° (WNW) 07:07:03 145.980 - 146.000
BEESAT 3 27 Feb 07:06:41 07:08:55 14° 319° (NW) 07:11:11 437.485
XW-2D 27 Feb 07:07:19 07:09:58 18° 293° (WNW) 07:12:35 145.860 - 145.880
XW-2B 27 Feb 07:12:35 07:15:02 16° 294° (WNW) 07:17:27 145.730 - 145.750
CUTE 1.7 + AOD 2 27 Feb 07:13:29 07:17:36 51° 99° (E) 07:21:41 437.475
O/OREOS (USA 219) 27 Feb 07:15:33 07:19:47 36° 61° (ENE) 07:24:02 437.305
PRISM 27 Feb 07:20:17 07:22:25 14° 64° (ENE) 07:24:35 437.425
XW-2C 27 Feb 07:21:50 07:23:41 13° 295° (WNW) 07:25:31 145.795 - 145.815
NUDT-PHONESAT 27 Feb 07:26:22 07:28:18 14° 295° (WNW) 07:30:14 437.300
DOVE 4 27 Feb 07:30:20 07:33:09 16° 296° (WNW) 07:36:03 437.250
BEESAT 2 27 Feb 07:49:47 07:51:46 13° 320° (NW) 07:53:45 435.950
AAUSAT CUBESAT 2 27 Feb 07:50:11 07:54:06 42° 98° (E) 07:57:59 437.432
ISS 27 Feb 07:50:47 07:53:58 45° 330° (NNW) 07:57:10 437.550
HO-68 27 Feb 07:52:28 07:59:39 86° 288° (WNW) 08:06:48 435.675
CUBEBUG 2 27 Feb 07:52:31 07:57:16 64° 100° (E) 08:01:56 437.445
AO-73 27 Feb 07:53:55 07:57:26 22° 93° (E) 08:00:53 145.935
Oscar 11 27 Feb 07:58:10 08:01:24 20° 93° (E) 08:04:35 .
CUTE-I 27 Feb 08:05:54 08:08:15 13° 302° (WNW) 08:10:38 437.470
TIGRISAT 27 Feb 08:06:19 08:09:30 19° 64° (ENE) 08:12:43 435.000
XW-2A 27 Feb 08:06:23 08:08:57 19° 291° (WNW) 08:11:29 145.665 - 145.685
UNISAT 6 27 Feb 08:06:28 08:09:48 20° 65° (ENE) 08:13:12 437.425
SEEDS 27 Feb 08:06:57 08:11:03 58° 286° (WNW) 08:15:08 437.485
Tancredo 1 27 Feb 08:11:42 08:14:39 31° 335° (NNW) 08:17:37 437.200
UWE-3 27 Feb 08:25:38 08:30:20 89° 93° (E) 08:34:56 435.000/436.395/437.385
ZACube-1 27 Feb 08:42:02 08:46:36 80° 102° (ESE) 08:51:04 437.345
CUTE 1.7 + AOD 2 27 Feb 08:50:41 08:53:00 15° 296° (WNW) 08:55:19 437.475
PRISM 27 Feb 08:53:20 08:57:18 50° 260° (W) 09:01:16 437.425
O/OREOS (USA 219) 27 Feb 08:55:24 08:58:59 23° 258° (WSW) 09:02:33 437.305
FO-29 27 Feb 08:57:38 09:04:26 44° 66° (ENE) 09:11:43 435.910
YUBILEINY 27 Feb 09:04:24 09:12:16 38° 86° (E) 09:20:06 435.215
DELFI C3 27 Feb 09:04:35 09:08:09 32° 97° (E) 09:11:41 145.870
AIST 2D 27 Feb 09:14:56 09:15:50 11° 64° (ENE) 09:16:45 435.315
AAUSAT CUBESAT 2 27 Feb 09:26:38 09:29:14 16° 295° (WNW) 09:31:49 437.432
ISS 27 Feb 09:28:50 09:31:03 16° 350° (N) 09:33:16 437.550
AO-73 27 Feb 09:29:37 09:33:45 36° 290° (WNW) 09:37:47 145.935
CUBEBUG 2 27 Feb 09:30:37 09:33:19 15° 298° (WNW) 09:36:01 437.445
Oscar 11 27 Feb 09:33:39 09:37:37 35° 289° (WNW) 09:41:32 .
TIGRISAT 27 Feb 09:41:28 09:45:48 45° 262° (W) 09:50:15 435.000
UNISAT 6 27 Feb 09:41:55 09:46:11 42° 262° (W) 09:50:36 437.425
HO-68 27 Feb 09:41:55 09:46:22 18° 306° (NW) 09:50:47 435.675
Tancredo 1 27 Feb 09:49:43 09:51:41 15° 355° (N) 09:53:37 437.200
DUCHIFAT 1 27 Feb 10:02:12 10:05:35 24° 67° (ENE) 10:09:00 145.980
UWE-3 27 Feb 10:04:58 10:06:01 11° 300° (WNW) 10:07:04 435.000/436.395/437.385
EO-79 27 Feb 10:14:55 10:18:51 39° 71° (ENE) 10:22:49 145.935-145.965
ESTCUBE 1 27 Feb 10:16:47 10:19:24 15° 92° (E) 10:22:01 437.505/2401.250
ZACube-1 27 Feb 10:20:43 10:22:11 11° 299° (WNW) 10:23:38 437.345
NANOSAT C BR1 27 Feb 10:30:19 10:34:25 53° 73° (ENE) 10:38:33 145.865
POLYITAN 1 27 Feb 10:32:49 10:37:01 63° 74° (ENE) 10:41:15 437.675
QB50P2 27 Feb 10:35:52 10:40:05 73° 76° (ENE) 10:44:21 145.880/145.840
DELFI C3 27 Feb 10:39:57 10:42:43 19° 293° (WNW) 10:45:29 145.870
AO-85 27 Feb 10:40:05 10:41:14 11° 38° (NE) 10:42:24 145.980
LO-87 27 Feb 10:42:39 10:46:13 59° 101° (E) 10:49:47 145.935 - 145.965
FO-29 27 Feb 10:42:44 10:49:24 40° 265° (W) 10:56:39 435.910
AIST 2D 27 Feb 10:45:10 10:48:37 49° 260° (W) 10:52:07 435.315
Oscar 19 27 Feb 10:48:22 10:49:27 11° 57° (ENE) 10:50:33 437.125/150
BUGSAT 1 27 Feb 10:50:17 10:53:44 27° 68° (ENE) 10:57:13 437.445
YUBILEINY 27 Feb 11:00:24 11:08:50 48° 285° (WNW) 11:17:17 435.215
ISS 27 Feb 11:06:13 11:08:28 17° 11° (N) 11:10:43 437.550
Tancredo 1 27 Feb 11:26:28 11:28:52 19° 15° (NNE) 11:31:17 437.200
DUCHIFAT 1 27 Feb 11:37:27 11:41:07 29° 264° (W) 11:44:51 145.980
Gurwin Techsat 1B 27 Feb 11:47:43 11:51:43 22° 63° (ENE) 11:55:45 435.225
EO-79 27 Feb 11:51:51 11:54:45 18° 267° (W) 11:57:41 145.935-145.965
ESTCUBE 1 27 Feb 11:52:09 11:56:30 51° 287° (WNW) 12:00:49 437.505/2401.250
DX 1 27 Feb 11:52:25 11:55:52 22° 95° (E) 11:59:16 434.975-435.025
SPROUT 27 Feb 11:58:55 12:03:08 51° 100° (E) 12:07:19 437.525
UKube-1 27 Feb 12:00:15 12:03:22 19° 94° (E) 12:06:29 .
VELOX 1 27 Feb 12:07:35 12:12:01 77° 104° (ESE) 12:16:26 145.980
NANOSAT C BR1 27 Feb 12:08:26 12:10:26 13° 269° (W) 12:12:27 145.865
POLYITAN 1 27 Feb 12:11:53 12:13:13 11° 270° (W) 12:14:32 437.675
AO-85 27 Feb 12:18:20 12:22:16 86° 61° (ENE) 12:26:14 145.980
Oscar 19 27 Feb 12:22:46 12:27:55 79° 74° (ENE) 12:33:03 437.125/150
BUGSAT 1 27 Feb 12:25:44 12:29:03 24° 265° (W) 12:32:25 437.445
50 SAT 27 Feb 12:34:58 12:38:24 61° 285° (WNW) 12:41:49 437.505
ISS 27 Feb 12:42:19 12:45:32 48° 30° (NNE) 12:48:43 437.550
AO-7 27 Feb 12:47:02 12:53:24 25° 53° (NE) 12:59:46 .
Tancredo 1 27 Feb 13:02:19 13:05:34 76° 34° (NE) 13:08:46 437.200
ITAMSAT 1 27 Feb 13:03:06 13:06:52 21° 62° (ENE) 13:10:39 435.822/435.867
